,,Stat5,,Stat1,,Stat2,,Stat3,,Stat4,,Wind1,,Wind1,
time,status,PA1M_AVG,status,PR1M_SUM,status,RH1M_AVG,status,SR1M_AVG,status,TA1M_AVG,status,W1dAve1m,status,W1sAve1m,
2002-04-14, 00:00:00,VALID,917.189,VALID,0,VALID,98.3637,VALID,0,VALID,20.6843,VALID,119,VALID,0.784801,
2002-04-14, 00:01:00,VALID,917.182,VALID,0,VALID,98.2505,VALID,0,VALID,20.6849,VALID,100,VALID,0.845553,
2002-04-14, 00:02:00,VALID,917.177,VALID,0,VALID,98.1768,VALID,0,VALID,20.6846,VALID,140,VALID,0.651116,
2002-04-14, 00:03:00,VALID,917.169,VALID,0,VALID,98.0623,VALID,0,VALID,20.6814,VALID,115,VALID,1.03345,
2002-04-14, 00:04:00,VALID,917.171,VALID,0,VALID,97.8754,VALID,-0.0169808,VALID,20.6784,VALID,134,VALID,1.19766,
2002-04-14, 00:05:00,VALID,917.173,VALID,0,VALID,97.7851,VALID,0,VALID,20.6682,VALID,139,VALID,1.29127,
2002-04-14, 00:06:00,VALID,917.16,VALID,0,VALID,97.7343,VALID,0,VALID,20.701,VALID,147,VALID,1.09315,
2002-04-14, 00:07:00,VALID,917.154,VALID,0,VALID,97.555,VALID,0,VALID,20.697,VALID,136,VALID,0.961149,
2002-04-14, 00:08:00,VALID,917.145,VALID,0,VALID,97.3973,VALID,0,VALID,20.7134,VALID,135,VALID,1.3236,
2002-04-14, 00:09:00,VALID,917.14,VALID,0,VALID,97.2956,VALID,0,VALID,20.7236,VALID,147,VALID,1.87411,
2002-04-14, 00:10:00,VALID,917.133,VALID,0,VALID,97.1531,VALID,0.0169808,VALID,20.743,VALID,140,VALID,0.834882,
2002-04-14, 00:11:00,VALID,917.125,VALID,0,VALID,96.9967,VALID,0.0169808,VALID,20.7487,VALID,141,VALID,1.23438,
2002-04-14, 00:12:00,VALID,917.13,VALID,0,VALID,96.8543,VALID,0,VALID,20.7527,VALID,137,VALID,0.725761,
2002-04-14, 00:13:00,VALID,917.13,VALID,0,VALID,96.7691,VALID,-0.0339617,VALID,20.7559,VALID,147,VALID,1.15516,
2002-04-14, 00:14:00,VALID,917.13,VALID,0,VALID,96.6814,VALID,0,VALID,20.7428,VALID,153,VALID,1.04256,
2002-04-14, 00:15:00,VALID,917.109,VALID,0,VALID,96.5936,VALID,0,VALID,20.7463,VALID,129,VALID,1.03537,
2002-04-14, 00:16:00,VALID,917.105,VALID,0,VALID,96.5784,VALID,0,VALID,20.7395,VALID,136,VALID,1.23438,
2002-04-14, 00:17:00,VALID,917.087,VALID,0,VALID,96.5313,VALID,0,VALID,20.7428,VALID,149,VALID,1.47381,
2002-04-14, 00:18:00,VALID,917.08,VALID,0,VALID,96.4805,VALID,-0.0169808,VALID,20.746,VALID,150,VALID,1.02264,
2002-04-14, 00:19:00,VALID,917.071,VALID,0,VALID,96.4118,VALID,0,VALID,20.7328,VALID,145,VALID,1.16992,
2002-04-14, 00:20:00,VALID,917.04,VALID,0,VALID,96.352,VALID,0,VALID,20.7331,VALID,153,VALID,0.909539,
2002-04-14, 00:21:00,VALID,917.024,VALID,0,VALID,96.3787,VALID,-0.0169808,VALID,20.7199,VALID,137,VALID,1.23025,
2002-04-14, 00:22:00,VALID,917.013,VALID,0,VALID,96.366,VALID,0,VALID,20.7169,VALID,135,VALID,0.969383,
2002-04-14, 00:23:00,VALID,917.01,VALID,0,VALID,96.2655,VALID,0,VALID,20.7104,VALID,113,VALID,0.964844,
2002-04-14, 00:24:00,VALID,917,VALID,0,VALID,96.3902,VALID,-0.0339617,VALID,20.7142,VALID,124,VALID,1.27404,
2002-04-14, 00:25:00,VALID,916.99,VALID,0,VALID,96.319,VALID,-0.0509425,VALID,20.7099,VALID,125,VALID,1.01931,
2002-04-14, 00:26:00,VALID,916.973,VALID,0,VALID,96.2452,VALID,-0.0169808,VALID,20.7137,VALID,123,VALID,1.12212,
2002-04-14, 00:27:00,VALID,916.964,VALID,0,VALID,96.2236,VALID,0,VALID,20.7002,VALID,128,VALID,0.693793,
2002-04-14, 00:28:00,VALID,916.955,VALID,0,VALID,96.1753,VALID,0,VALID,20.694,VALID,145,VALID,0.937289,
2002-04-14, 00:29:00,VALID,916.956,VALID,0,VALID,96.2071,VALID,0.0169808,VALID,20.6873,VALID,130,VALID,0.827665,
2002-04-14, 00:30:00,VALID,916.93,VALID,0,VALID,96.1626,VALID,0,VALID,20.6876,VALID,138,VALID,0.938702,
2002-04-14, 00:31:00,VALID,916.926,VALID,0,VALID,96.1269,VALID,0,VALID,20.6978,VALID,137,VALID,0.882813,
2002-04-14, 00:32:00,VALID,916.916,VALID,0,VALID,96.1269,VALID,0.0169808,VALID,20.7072,VALID,131,VALID,0.674753,
2002-04-14, 00:33:00,VALID,916.919,VALID,0,VALID,96.1346,VALID,0,VALID,20.7002,VALID,145,VALID,0.979384,
2002-04-14, 00:34:00,VALID,916.924,VALID,0,VALID,96.1053,VALID,0,VALID,20.7134,VALID,147,VALID,1.04624,
2002-04-14, 00:35:00,VALID,916.91,VALID,0,VALID,96.1969,VALID,0,VALID,20.7204,VALID,139,VALID,1.26333,
2002-04-14, 00:36:00,VALID,916.902,VALID,0,VALID,96.2579,VALID,0,VALID,20.7274,VALID,145,VALID,1.34095,
2002-04-14, 00:37:00,VALID,916.881,VALID,0,VALID,96.3101,VALID,0,VALID,20.7234,VALID,134,VALID,1.1467,
2002-04-14, 00:38:00,VALID,916.867,VALID,0,VALID,96.2935,VALID,0,VALID,20.7072,VALID,118,VALID,0.989515,
2002-04-14, 00:39:00,VALID,916.851,VALID,0,VALID,96.3914,VALID,0,VALID,20.6851,VALID,116,VALID,1.08333,
2002-04-14, 00:40:00,VALID,916.816,VALID,0,VALID,96.4766,VALID,0,VALID,20.6811,VALID,125,VALID,0.80511,
2002-04-14, 00:41:00,VALID,916.794,VALID,0,VALID,96.4334,VALID,0,VALID,20.6717,VALID,124,VALID,0.511719,
2002-04-14, 00:42:00,VALID,916.785,VALID,0,VALID,96.4715,VALID,0,VALID,20.6426,VALID,131,VALID,0.839543,
2002-04-14, 00:43:00,VALID,916.771,VALID,0,VALID,96.5084,VALID,0,VALID,20.6458,VALID,132,VALID,0.507813,
2002-04-14, 00:44:00,VALID,916.769,VALID,0,VALID,96.4881,VALID,0,VALID,20.6264,VALID,133,VALID,0.694901,
2002-04-14, 00:45:00,VALID,916.761,VALID,0,VALID,96.5211,VALID,0,VALID,20.6264,VALID,147,VALID,1.00651,
2002-04-14, 00:46:00,VALID,916.748,VALID,0,VALID,96.4855,VALID,0,VALID,20.6299,VALID,140,VALID,0.901182,
2002-04-14, 00:47:00,VALID,916.742,VALID,0,VALID,96.4118,VALID,0,VALID,20.6001,VALID,130,VALID,0.717371,
2002-04-14, 00:48:00,VALID,916.734,VALID,0,VALID,96.3177,VALID,-0.0169808,VALID,20.5971,VALID,139,VALID,0.46254,
2002-04-14, 00:49:00,VALID,916.737,VALID,0,VALID,96.3329,VALID,0.0339617,VALID,20.5844,VALID,153,VALID,0.858724,
2002-04-14, 00:50:00,VALID,916.746,VALID,0,VALID,96.3876,VALID,-0.0169808,VALID,20.5688,VALID,144,VALID,0.828331,
2002-04-14, 00:51:00,VALID,916.749,VALID,0,VALID,96.2732,VALID,0,VALID,20.5457,VALID,127,VALID,0.612847,
2002-04-14, 00:52:00,VALID,916.756,VALID,0,VALID,96.4385,VALID,0.0169808,VALID,20.5265,VALID,142,VALID,0.986486,
2002-04-14, 00:53:00,VALID,916.745,VALID,0,VALID,96.5364,VALID,0,VALID,20.5263,VALID,139,VALID,0.786535,
2002-04-14, 00:54:00,VALID,916.75,VALID,0,VALID,96.4487,VALID,0,VALID,20.5099,VALID,118,VALID,0.510417,
2002-04-14, 00:55:00,VALID,916.739,VALID,0,VALID,96.5618,VALID,0,VALID,20.5039,VALID,104,VALID,0.929688,
2002-04-14, 00:56:00,VALID,916.726,VALID,0,VALID,96.7017,VALID,-0.0169808,VALID,20.5265,VALID,104,VALID,0.924753,
2002-04-14, 00:57:00,VALID,916.704,VALID,0,VALID,96.5707,VALID,0.0169808,VALID,20.5559,VALID,89,VALID,0.882161,
2002-04-14, 00:58:00,VALID,916.686,VALID,0,VALID,96.2605,VALID,0.0169808,VALID,20.5392,VALID,89,VALID,0.991132,
2002-04-14, 00:59:00,VALID,916.679,VALID,0,VALID,95.9845,VALID,0.0509425,VALID,20.5454,VALID,86,VALID,1.26103,
2002-04-14, 01:00:00,VALID,916.679,VALID,0,VALID,95.7722,VALID,0.0169808,VALID,20.5322,VALID,87,VALID,1.19171,
2002-04-14, 01:01:00,VALID,916.683,VALID,0,VALID,95.5776,VALID,0,VALID,20.5395,VALID,86,VALID,0.96875,
2002-04-14, 01:02:00,VALID,916.682,VALID,0,VALID,95.4543,VALID,0.0169808,VALID,20.5365,VALID,74,VALID,1.01069,
2002-04-14, 01:03:00,VALID,916.69,VALID,0,VALID,95.35,VALID,-0.0339617,VALID,20.5004,VALID,82,VALID,0.836589,
2002-04-14, 01:04:00,VALID,916.701,VALID,0,VALID,95.3945,VALID,0.0169808,VALID,20.481,VALID,90,VALID,1.0057,
2002-04-14, 01:05:00,VALID,916.692,VALID,0,VALID,95.6463,VALID,0.0169808,VALID,20.487,VALID,105,VALID,1.04182,
2002-04-14, 01:06:01,VALID,916.688,VALID,0,VALID,95.6921,VALID,0.0169808,VALID,20.5037,VALID,112,VALID,0.840345,
2002-04-14, 01:07:00,VALID,916.667,VALID,0,VALID,95.687,VALID,0,VALID,20.5136,VALID,121,VALID,1.06684,
2002-04-14, 01:08:00,VALID,916.641,VALID,0,VALID,95.7607,VALID,0.0169808,VALID,20.5489,VALID,122,VALID,1.33532,
2002-04-14, 01:09:00,VALID,916.607,VALID,0,VALID,95.4174,VALID,0,VALID,20.6006,VALID,121,VALID,1.28082,
2002-04-14, 01:10:00,VALID,916.56,VALID,0,VALID,95.1211,VALID,0.0339617,VALID,20.6359,VALID,126,VALID,1.2046,
2002-04-14, 01:11:00,VALID,916.529,VALID,0,VALID,94.8935,VALID,0.0339617,VALID,20.6714,VALID,107,VALID,0.975414,
2002-04-14, 01:12:01,VALID,916.496,VALID,0,VALID,94.718,VALID,0,VALID,20.6749,VALID,91,VALID,0.93109,
2002-04-14, 01:13:00,VALID,916.473,VALID,0,VALID,94.8375,VALID,0,VALID,20.6717,VALID,97,VALID,1.04427,
2002-04-14, 01:14:00,VALID,916.447,VALID,0,VALID,94.7905,VALID,0.0339617,VALID,20.6717,VALID,90,VALID,1.11883,
2002-04-14, 01:15:00,VALID,916.416,VALID,0,VALID,94.6341,VALID,0.0169808,VALID,20.655,VALID,94,VALID,1.00673,
2002-04-14, 01:16:00,VALID,916.406,VALID,0,VALID,94.5934,VALID,0,VALID,20.6391,VALID,100,VALID,0.969595,
2002-04-14, 01:17:00,VALID,916.393,VALID,0,VALID,94.5807,VALID,0,VALID,20.6294,VALID,111,VALID,1.35248,
2002-04-14, 01:18:01,VALID,916.379,VALID,0,VALID,94.6621,VALID,0,VALID,20.6488,VALID,100,VALID,1.24159,
2002-04-14, 01:19:00,VALID,916.377,VALID,0,VALID,94.4522,VALID,0.0169808,VALID,20.6719,VALID,88,VALID,1.1556,
2002-04-14, 01:20:00,VALID,916.357,VALID,0,VALID,94.1992,VALID,0,VALID,20.6886,VALID,78,VALID,1.04379,
2002-04-14, 01:21:00,VALID,916.34,VALID,0,VALID,93.9233,VALID,0.0169808,VALID,20.6816,VALID,87,VALID,0.937066,
2002-04-14, 01:22:00,VALID,916.312,VALID,0,VALID,93.805,VALID,-0.0679233,VALID,20.6541,VALID,80,VALID,1.27576,
2002-04-14, 01:23:00,VALID,916.297,VALID,0,VALID,94.1699,VALID,-0.101885,VALID,20.6124,VALID,94,VALID,1.38672,
2002-04-14, 01:24:01,VALID,916.272,VALID,0,VALID,94.5616,VALID,-0.101885,VALID,20.5868,VALID,103,VALID,0.978566,
2002-04-14, 01:25:00,VALID,916.252,VALID,0,VALID,94.863,VALID,-0.0679233,VALID,20.5669,VALID,106,VALID,1.02083,
2002-04-14, 01:26:00,VALID,916.251,VALID,0,VALID,95.0232,VALID,-0.101885,VALID,20.547,VALID,109,VALID,1.39844,
2002-04-14, 01:27:00,VALID,916.241,VALID,0,VALID,95.0423,VALID,-0.101885,VALID,20.5539,VALID,106,VALID,1.16146,
2002-04-14, 01:28:00,VALID,916.248,VALID,0,VALID,95.1567,VALID,-0.101885,VALID,20.5537,VALID,110,VALID,1.3541,
2002-04-14, 01:29:00,VALID,916.259,VALID,0,VALID,95.1745,VALID,-0.101885,VALID,20.5504,VALID,91,VALID,0.907858,
2002-04-14, 01:30:01,VALID,916.29,VALID,0,VALID,95.289,VALID,-0.0849042,VALID,20.5308,VALID,92,VALID,1.01142,
2002-04-14, 01:31:00,VALID,916.3,VALID,0,VALID,95.1364,VALID,-0.118866,VALID,20.5289,VALID,87,VALID,0.856771,
2002-04-14, 01:32:00,VALID,916.316,VALID,0,VALID,95.2559,VALID,-0.101885,VALID,20.4933,VALID,90,VALID,0.905016,
2002-04-14, 01:33:00,VALID,916.32,VALID,0,VALID,95.3945,VALID,-0.101885,VALID,20.4575,VALID,94,VALID,1.20399,
2002-04-14, 01:34:00,VALID,916.322,VALID,0,VALID,95.3958,VALID,-0.118866,VALID,20.4478,VALID,92,VALID,1.29835,
2002-04-14, 01:35:00,VALID,916.324,VALID,0,VALID,95.6298,VALID,-0.101885,VALID,20.4182,VALID,99,VALID,1.15303,
2002-04-14, 01:36:01,VALID,916.306,VALID,0,VALID,95.8332,VALID,-0.0849042,VALID,20.4026,VALID,106,VALID,0.883013,
2002-04-14, 01:37:00,VALID,916.281,VALID,0,VALID,95.9705,VALID,-0.0339617,VALID,20.4015,VALID,106,VALID,0.82487,
2002-04-14, 01:38:00,VALID,916.275,VALID,0,VALID,96.0621,VALID,0,VALID,20.3747,VALID,107,VALID,0.899671,
2002-04-14, 01:39:00,VALID,916.252,VALID,0,VALID,96.1295,VALID,0,VALID,20.3784,VALID,117,VALID,0.935981,
2002-04-14, 01:40:00,VALID,916.237,VALID,0,VALID,96.0659,VALID,0,VALID,20.3687,VALID,125,VALID,0.699958,
2002-04-14, 01:41:00,VALID,916.215,VALID,0,VALID,96.0799,VALID,0,VALID,20.3523,VALID,131,VALID,1.13856,
2002-04-14, 01:42:01,VALID,916.193,VALID,0,VALID,96.1893,VALID,-0.0169808,VALID,20.3362,VALID,125,VALID,1.3728,
2002-04-14, 01:43:00,VALID,916.185,VALID,0,VALID,96.2261,VALID,0,VALID,20.3526,VALID,126,VALID,1.39692,
2002-04-14, 01:44:00,VALID,916.171,VALID,0,VALID,96.1956,VALID,-0.0169808,VALID,20.359,VALID,128,VALID,1.22533,
2002-04-14, 01:45:00,VALID,916.157,VALID,0,VALID,96.071,VALID,0,VALID,20.3521,VALID,128,VALID,0.835286,
2002-04-14, 01:46:00,VALID,916.13,VALID,0,VALID,95.9985,VALID,0.0169808,VALID,20.3623,VALID,126,VALID,0.854941,
2002-04-14, 01:47:00,VALID,916.106,VALID,0,VALID,95.9604,VALID,0,VALID,20.3424,VALID,137,VALID,0.769991,
2002-04-14, 01:48:01,VALID,916.078,VALID,0,VALID,95.9794,VALID,0,VALID,20.3426,VALID,133,VALID,0.689103,
2002-04-14, 01:49:00,VALID,916.052,VALID,0,VALID,95.9667,VALID,0,VALID,20.3593,VALID,138,VALID,1.10829,
2002-04-14, 01:50:00,VALID,916.025,VALID,0,VALID,95.8205,VALID,0,VALID,20.3854,VALID,146,VALID,1.18586,
2002-04-14, 01:51:00,VALID,915.981,VALID,0,VALID,95.6628,VALID,0,VALID,20.3814,VALID,147,VALID,1.0497,
2002-04-14, 01:52:00,VALID,915.95,VALID,0,VALID,95.5878,VALID,0.0169808,VALID,20.3854,VALID,145,VALID,1.1307,
2002-04-14, 01:53:00,VALID,915.921,VALID,0,VALID,95.6081,VALID,-0.0169808,VALID,20.3886,VALID,145,VALID,1.10892,
2002-04-14, 01:54:01,VALID,915.897,VALID,0,VALID,95.5916,VALID,-0.0679233,VALID,20.3889,VALID,137,VALID,0.936098,
2002-04-14, 01:55:00,VALID,915.873,VALID,0,VALID,95.4797,VALID,-0.0339617,VALID,20.3717,VALID,138,VALID,1.02344,
2002-04-14, 01:56:00,VALID,915.867,VALID,0,VALID,95.4403,VALID,-0.0169808,VALID,20.3819,VALID,129,VALID,0.808183,
2002-04-14, 01:57:00,VALID,915.862,VALID,0,VALID,95.4212,VALID,0,VALID,20.3951,VALID,137,VALID,0.965061,
2002-04-14, 01:58:00,VALID,915.844,VALID,0,VALID,95.3106,VALID,0,VALID,20.3816,VALID,141,VALID,0.646748,
2002-04-14, 01:59:00,VALID,915.844,VALID,0,VALID,95.2025,VALID,-0.0169808,VALID,20.3789,VALID,145,VALID,1.02505,
2002-04-14, 02:00:01,VALID,915.838,VALID,0,VALID,95.2406,VALID,-0.0339617,VALID,20.3561,VALID,128,VALID,0.879808,
2002-04-14, 02:01:00,VALID,915.846,VALID,0,VALID,95.3258,VALID,-0.0169808,VALID,20.3561,VALID,122,VALID,0.475911,
2002-04-14, 02:02:00,VALID,915.827,VALID,0,VALID,95.3627,VALID,-0.0169808,VALID,20.3566,VALID,132,VALID,0.814762,
2002-04-14, 02:03:00,VALID,915.824,VALID,0,VALID,95.2966,VALID,-0.0169808,VALID,20.3372,VALID,143,VALID,0.878472,
2002-04-14, 02:04:00,VALID,915.818,VALID,0,VALID,95.3513,VALID,-0.0169808,VALID,20.3334,VALID,142,VALID,1.13387,
2002-04-14, 02:05:01,VALID,915.82,VALID,0,VALID,95.3487,VALID,-0.0339617,VALID,20.3168,VALID,148,VALID,0.89568,
2002-04-14, 02:06:01,VALID,915.821,VALID,0,VALID,95.5064,VALID,-0.0169808,VALID,20.3044,VALID,157,VALID,1.21635,
2002-04-14, 02:07:00,VALID,915.823,VALID,0,VALID,95.6552,VALID,-0.0339617,VALID,20.2917,VALID,155,VALID,1.26563,
2002-04-14, 02:08:00,VALID,915.842,VALID,0,VALID,95.7378,VALID,0,VALID,20.2753,VALID,151,VALID,1.04852,
2002-04-14, 02:09:00,VALID,915.852,VALID,0,VALID,95.7823,VALID,-0.0339617,VALID,20.2564,VALID,153,VALID,1.13325,
2002-04-14, 02:10:00,VALID,915.847,VALID,0,VALID,95.8624,VALID,-0.0339617,VALID,20.2532,VALID,147,VALID,1.02154,
2002-04-14, 02:11:01,VALID,915.84,VALID,0,VALID,95.8599,VALID,0,VALID,20.24,VALID,133,VALID,0.58364,
2002-04-14, 02:12:01,VALID,915.849,VALID,0,VALID,95.9489,VALID,-0.0339617,VALID,20.2204,VALID,134,VALID,1.05088,
2002-04-14, 02:13:00,VALID,915.829,VALID,0,VALID,95.9616,VALID,-0.0169808,VALID,20.2333,VALID,138,VALID,0.916667,
2002-04-14, 02:14:00,VALID,915.819,VALID,0,VALID,95.8955,VALID,0,VALID,20.2368,VALID,127,VALID,0.746916,
2002-04-14, 02:15:00,VALID,915.8,VALID,0,VALID,95.9451,VALID,0,VALID,20.237,VALID,131,VALID,0.922309,
2002-04-14, 02:16:01,VALID,915.76,VALID,0,VALID,95.8777,VALID,0,VALID,20.2204,VALID,117,VALID,0.705236,
2002-04-14, 02:17:01,VALID,915.757,VALID,0,VALID,95.926,VALID,-0.0169808,VALID,20.2074,VALID,105,VALID,0.491039,
2002-04-14, 02:18:01,VALID,915.734,VALID,0,VALID,95.9019,VALID,-0.0339617,VALID,20.1848,VALID,100,VALID,0.312901,
2002-04-14, 02:19:01,VALID,915.721,VALID,0,VALID,95.8307,VALID,0,VALID,20.1592,VALID,80,VALID,0.593099,
2002-04-14, 02:20:00,VALID,915.714,VALID,0,VALID,96.0494,VALID,-0.0169808,VALID,20.1493,VALID,99,VALID,0.877056,
2002-04-14, 02:21:01,VALID,915.708,VALID,0,VALID,96.1028,VALID,-0.0339617,VALID,20.1784,VALID,113,VALID,0.694878,
2002-04-14, 02:22:01,VALID,915.706,VALID,0,VALID,96.0163,VALID,-0.0509425,VALID,20.188,VALID,119,VALID,0.661529,
2002-04-14, 02:23:01,VALID,915.717,VALID,0,VALID,95.9705,VALID,-0.0339617,VALID,20.198,VALID,131,VALID,0.508502,
2002-04-14, 02:24:01,VALID,915.719,VALID,0,VALID,95.8536,VALID,-0.0169808,VALID,20.2112,VALID,133,VALID,0.265825,
2002-04-14, 02:25:01,VALID,915.736,VALID,0,VALID,95.8307,VALID,-0.0849042,VALID,20.2012,VALID,132,VALID,0.411241,
2002-04-14, 02:26:01,VALID,915.738,VALID,0,VALID,95.7582,VALID,-0.0339617,VALID,20.2045,VALID,136,VALID,0.303865,
2002-04-14, 02:27:01,VALID,915.753,VALID,0,VALID,95.6743,VALID,-0.0169808,VALID,20.1853,VALID,136,VALID,0.125434,
2002-04-14, 02:28:01,VALID,915.755,VALID,0,VALID,95.6005,VALID,-0.0169808,VALID,20.1493,VALID,136,VALID,0,
2002-04-14, 02:29:01,VALID,915.772,VALID,0,VALID,95.5649,VALID,-0.0169808,VALID,20.114,VALID,205,VALID,0.0523897,
2002-04-14, 02:30:01,VALID,915.772,VALID,0,VALID,95.6298,VALID,-0.0169808,VALID,20.0921,VALID,251,VALID,0.155649,
2002-04-14, 02:31:01,VALID,915.778,VALID,0,VALID,95.6094,VALID,-0.0339617,VALID,20.0663,VALID,256,VALID,0.016276,
2002-04-14, 02:32:01,VALID,915.765,VALID,0,VALID,95.6272,VALID,-0.0509425,VALID,20.0178,VALID,256,VALID,0,
2002-04-14, 02:33:01,VALID,915.765,VALID,0,VALID,95.6425,VALID,-0.0169808,VALID,19.9587,VALID,256,VALID,0,
2002-04-14, 02:34:01,VALID,915.752,VALID,0,VALID,95.4403,VALID,-0.0169808,VALID,19.8948,VALID,256,VALID,0,
2002-04-14, 02:35:01,VALID,915.732,VALID,0,VALID,95.7912,VALID,-0.0679233,VALID,19.8493,VALID,256,VALID,0,
2002-04-14, 02:36:01,VALID,915.717,VALID,0,VALID,96.029,VALID,-0.0509425,VALID,19.8434,VALID,256,VALID,0,
2002-04-14, 02:37:01,VALID,915.7,VALID,0,VALID,96.1219,VALID,-0.0679233,VALID,19.8272,VALID,256,VALID,0,
2002-04-14, 02:38:01,VALID,915.697,VALID,0,VALID,96.0087,VALID,-0.0339617,VALID,19.7653,VALID,257,VALID,0,
2002-04-14, 02:39:01,VALID,915.702,VALID,0,VALID,96.132,VALID,-0.0679233,VALID,19.7271,VALID,257,VALID,0,
2002-04-14, 02:40:01,VALID,915.711,VALID,0,VALID,96.4296,VALID,-0.0339617,VALID,19.7102,VALID,280,VALID,0.386824,
2002-04-14, 02:41:00,VALID,915.721,VALID,0,VALID,96.792,VALID,0,VALID,19.7397,VALID,290,VALID,0.463465,
2002-04-14, 02:42:00,VALID,915.747,VALID,0,VALID,96.9624,VALID,-0.0339617,VALID,19.7266,VALID,276,VALID,0.179688,
2002-04-14, 02:43:00,VALID,915.751,VALID,0,VALID,97.1875,VALID,-0.0509425,VALID,19.7397,VALID,270,VALID,0.333984,
2002-04-14, 02:44:00,VALID,915.767,VALID,0,VALID,97.3642,VALID,-0.0509425,VALID,19.7628,VALID,270,VALID,0.193257,
2002-04-14, 02:45:00,VALID,915.767,VALID,0,VALID,97.466,VALID,-0.0169808,VALID,19.7363,VALID,270,VALID,0.186415,
2002-04-14, 02:46:00,VALID,915.763,VALID,0,VALID,97.5041,VALID,-0.0509425,VALID,19.7203,VALID,270,VALID,0.0168919,
2002-04-14, 02:47:00,VALID,915.769,VALID,0,VALID,97.5028,VALID,-0.0509425,VALID,19.6848,VALID,270,VALID,0,
2002-04-14, 02:48:00,VALID,915.759,VALID,0,VALID,97.396,VALID,-0.0339617,VALID,19.6431,VALID,270,VALID,0.107973,
2002-04-14, 02:49:00,VALID,915.755,VALID,0,VALID,97.3998,VALID,-0.0339617,VALID,19.575,VALID,20,VALID,0.299696,
2002-04-14, 02:50:00,VALID,915.744,VALID,0,VALID,97.4354,VALID,-0.0339617,VALID,19.5171,VALID,55,VALID,0.60259,
2002-04-14, 02:51:00,VALID,915.749,VALID,0,VALID,97.7012,VALID,-0.0679233,VALID,19.5009,VALID,59,VALID,0.859158,
2002-04-14, 02:52:00,VALID,915.74,VALID,0,VALID,97.836,VALID,-0.0169808,VALID,19.4974,VALID,58,VALID,0.91364,
2002-04-14, 02:53:00,VALID,915.724,VALID,0,VALID,97.9263,VALID,0,VALID,19.487,VALID,56,VALID,0.845588,
2002-04-14, 02:54:00,VALID,915.709,VALID,0,VALID,97.7877,VALID,-0.0169808,VALID,19.4353,VALID,54,VALID,0.752604,
2002-04-14, 02:55:00,VALID,915.688,VALID,0,VALID,97.8207,VALID,0,VALID,19.3809,VALID,54,VALID,0.812717,
2002-04-14, 02:56:00,VALID,915.674,VALID,0,VALID,97.9822,VALID,0,VALID,19.3837,VALID,54,VALID,0.837377,
2002-04-14, 02:57:00,VALID,915.648,VALID,0,VALID,98.0318,VALID,-0.0849042,VALID,19.3844,VALID,54,VALID,0.718316,
2002-04-14, 02:58:00,VALID,915.64,VALID,0,VALID,97.9059,VALID,-0.0679233,VALID,19.3429,VALID,54,VALID,0.785051,
2002-04-14, 02:59:00,VALID,915.624,VALID,0,VALID,98.0954,VALID,-0.0509425,VALID,19.3464,VALID,54,VALID,0.874311,
2002-04-14, 03:00:00,VALID,915.626,VALID,0,VALID,98.2365,VALID,-0.0339617,VALID,19.3652,VALID,55,VALID,0.886418,
2002-04-14, 03:01:00,VALID,915.623,VALID,0,VALID,98.4146,VALID,-0.0509425,VALID,19.4144,VALID,53,VALID,0.560113,
2002-04-14, 03:02:00,VALID,915.632,VALID,0,VALID,98.4184,VALID,-0.0849042,VALID,19.4202,VALID,54,VALID,0.375411,
2002-04-14, 03:03:00,VALID,915.634,VALID,0,VALID,98.3879,VALID,-0.0509425,VALID,19.4199,VALID,55,VALID,0.353082,
2002-04-14, 03:04:00,VALID,915.659,VALID,0,VALID,98.4057,VALID,-0.0169808,VALID,19.4172,VALID,61,VALID,0.471706,
2002-04-14, 03:05:00,VALID,915.669,VALID,0,VALID,98.4222,VALID,-0.0169808,VALID,19.4137,VALID,61,VALID,0.436351,
2002-04-14, 03:06:00,VALID,915.678,VALID,0,VALID,98.4603,VALID,-0.0509425,VALID,19.411,VALID,61,VALID,0.478766,
2002-04-14, 03:07:00,VALID,915.69,VALID,0,VALID,98.5837,VALID,-0.0509425,VALID,19.413,VALID,66,VALID,0.452908,
2002-04-14, 03:08:00,VALID,915.687,VALID,0,VALID,98.6269,VALID,-0.0169808,VALID,19.4584,VALID,72,VALID,0.487664,
2002-04-14, 03:09:00,VALID,915.697,VALID,0,VALID,98.6117,VALID,0,VALID,19.4582,VALID,78,VALID,0.457682,
2002-04-14, 03:10:00,VALID,915.717,VALID,0,VALID,98.6485,VALID,0,VALID,19.4945,VALID,68,VALID,0.142103,
2002-04-14, 03:11:00,VALID,915.739,VALID,0,VALID,98.6028,VALID,-0.0339617,VALID,19.5044,VALID,68,VALID,0.128217,
2002-04-14, 03:12:00,VALID,915.746,VALID,0,VALID,98.5824,VALID,-0.0169808,VALID,19.5143,VALID,68,VALID,0.0865385,
2002-04-14, 03:13:00,VALID,915.766,VALID,0,VALID,98.5684,VALID,-0.0509425,VALID,19.5046,VALID,68,VALID,0.123915,
2002-04-14, 03:14:00,VALID,915.773,VALID,0,VALID,98.6193,VALID,-0.0169808,VALID,19.5104,VALID,68,VALID,0.472656,
2002-04-14, 03:15:00,VALID,915.774,VALID,0,VALID,98.5977,VALID,-0.0509425,VALID,19.5332,VALID,68,VALID,0.674479,
2002-04-14, 03:16:00,VALID,915.774,VALID,0,VALID,98.6256,VALID,-0.0169808,VALID,19.5561,VALID,74,VALID,0.838894,
2002-04-14, 03:17:00,VALID,915.751,VALID,0,VALID,98.5684,VALID,-0.0849042,VALID,19.5755,VALID,73,VALID,0.892923,
2002-04-14, 03:18:00,VALID,915.725,VALID,0,VALID,98.5048,VALID,-0.0339617,VALID,19.572,VALID,84,VALID,0.857372,
2002-04-14, 03:19:00,VALID,915.704,VALID,0,VALID,98.4616,VALID,-0.0339617,VALID,19.5884,VALID,88,VALID,0.807943,
2002-04-14, 03:20:00,VALID,915.676,VALID,0,VALID,98.4146,VALID,-0.0169808,VALID,19.5911,VALID,88,VALID,0.618832,
2002-04-14, 03:21:00,VALID,915.649,VALID,0,VALID,98.4324,VALID,-0.0339617,VALID,19.6147,VALID,98,VALID,0.597005,
2002-04-14, 03:22:00,VALID,915.629,VALID,0,VALID,98.4387,VALID,-0.0679233,VALID,19.6441,VALID,112,VALID,0.478252,
2002-04-14, 03:23:00,VALID,915.626,VALID,0,VALID,98.3777,VALID,-0.0679233,VALID,19.6525,VALID,99,VALID,0.518153,
2002-04-14, 03:24:00,VALID,915.63,VALID,0,VALID,98.2836,VALID,-0.0679233,VALID,19.6662,VALID,90,VALID,0.404647,
2002-04-14, 03:25:00,VALID,915.621,VALID,0,VALID,98.2327,VALID,-0.0339617,VALID,19.6692,VALID,90,VALID,0.429036,
2002-04-14, 03:26:00,VALID,915.622,VALID,0,VALID,98.1882,VALID,0,VALID,19.6823,VALID,90,VALID,0.717311,
2002-04-14, 03:27:00,VALID,915.63,VALID,0,VALID,98.0471,VALID,-0.0509425,VALID,19.6788,VALID,81,VALID,0.720703,
2002-04-14, 03:28:00,VALID,915.62,VALID,0,VALID,97.8792,VALID,-0.0169808,VALID,19.6595,VALID,83,VALID,0.826014,
2002-04-14, 03:29:00,VALID,915.607,VALID,0,VALID,97.808,VALID,-0.0169808,VALID,19.653,VALID,75,VALID,0.973116,
2002-04-14, 03:30:00,VALID,915.583,VALID,0,VALID,97.7254,VALID,-0.0339617,VALID,19.6359,VALID,73,VALID,0.909054,
2002-04-14, 03:31:00,VALID,915.535,VALID,0,VALID,97.7012,VALID,-0.0169808,VALID,19.656,VALID,76,VALID,0.859375,
2002-04-14, 03:32:00,VALID,915.497,VALID,0,VALID,97.588,VALID,0,VALID,19.6624,VALID,69,VALID,0.749589,
2002-04-14, 03:33:00,VALID,915.46,VALID,0,VALID,97.4927,VALID,-0.0679233,VALID,19.6654,VALID,72,VALID,0.634332,
2002-04-14, 03:34:00,VALID,915.433,VALID,0,VALID,97.3846,VALID,-0.0339617,VALID,19.6426,VALID,76,VALID,0.534628,
2002-04-14, 03:35:00,VALID,915.406,VALID,0,VALID,97.3528,VALID,-0.0169808,VALID,19.6592,VALID,86,VALID,0.337776,